Regional Weather Roundup
Issued by NWS

Home | Current Version | Previous Version | Text Only | Print | Product List | Glossary Off
Versions: 1 2 3 4 5 6 7 8 9 10 11 12 13 14 15 16 17 18 19 20 21 22 23 24 25 26 27 28 29 30 31 32 33 34 35 36 37 38 39 40 41 42 43 44 45 46 47 48 49 50

000
ASUS43 KMKX 270300
RWRWI

WISCONSIN REGIONAL WEATHER ROUNDUP
NATIONAL WEATHER SERVICE MILWAUKEE/SULLIVAN WI
1000 PM CDT MON SEP 26 2016

NOTE: "FAIR" INDICATES FEW OR NO CLOUDS BELOW 12,000 FEET WITH NO
SIGNIFICANT WEATHER AND/OR OBSTRUCTIONS TO VISIBILITY.

WIZ001-002-006>008-014>016-023>028-270400-
NORTHWEST WISCONSIN

CITY           SKY/WX    TMP DP  RH WIND       PRES   REMARKS
SUPERIOR ARPT  CLOUDY    55  44  68 W13G23    29.74F
ASHLAND        CLOUDY    52  45  77 W14G21    29.70F
HAYWARD        CLOUDY    54  42  64 W8        29.75F
SIREN          CLOUDY    55  40  59 W7        29.80F
CUMBERLAND     CLOUDY    52  37  58 W14       29.80F
RICE LAKE      CLOUDY    55  39  53 W9        29.81F
CHETEK         NOT AVBL
LADYSMITH      CLOUDY    55  42  60 W9        29.79F
EAU CLAIRE     NOT AVBL
MENOMONIE      CLEAR     53  38  57 W6        29.84S
NEW RICHMOND   CLEAR     51  38  61 W9        29.84F
OSCEOLA        PTCLDY    52  40  64 W8        29.87F
$$

WIZ003>005-009-010-017-018-270400-
NORTH CENTRAL WISCONSIN

CITY           SKY/WX    TMP DP  RH WIND       PRES   REMARKS
MANITOWISH WTR NOT AVBL
ARBOR VITAE    RAIN      49  47  93 W12       29.71F
WOODRUFF       RAIN      49  47  93 W12       29.71F
RHINELANDER    LGT RAIN  49  46  90 W17G24    29.72F
EAGLE RIVER    LGT RAIN  48  47  96 W13G24    29.69F
LAND O LAKES   RAIN      48  46  93 W9        29.68F
PHILLIPS       CLOUDY    49  46  88 W5        29.75F
TOMAHAWK       DRIZZLE   50  43  77 W10       29.76F
MEDFORD        CLOUDY    53  39  61 W8G17     29.77F
MERRILL        CLOUDY    53  42  68 W8        29.76F
$$

WIZ029-030-035-036-043>047-270400-
CENTRAL WISCONSIN

CITY           SKY/WX    TMP DP  RH WIND       PRES   REMARKS
WAUSAU         CLOUDY    54  39  57 W13       29.75F
MOSINEE        MOCLDY    52  41  66 W10       29.79F
MARSHFIELD     CLOUDY    53  39  59 W10       29.79F
STEVENS POINT  CLOUDY    52  39  61 SW7       29.80F
WAUPACA        PTCLDY    55  41  58 SW8       29.80F
WAUTOMA        NOT AVBL
WISC RAPIDS    PTCLDY    52  41  66 W8        29.82F
CAMP DOUGLAS   CLEAR     52  38  59 W10       29.83F
$$

WIZ011>013-019>022-031-037>040-048>050-270400-
NORTHEAST WISCONSIN

CITY           SKY/WX    TMP DP  RH WIND       PRES   REMARKS
ANTIGO         CLOUDY    49  42  76 W9        29.74F
SHAWANO        CLOUDY    57  41  55 SW9       29.76F
OCONTO         NOT AVBL
STURGEON BAY   CLOUDY    58  42  55 W14G22    29.74F
GREEN BAY      CLOUDY    55  42  61 SW9       29.77F
MANITOWOC      NOT AVBL
APPLETON       PTCLDY    54  37  54 SW10      29.79F
CLINTONVILLE   NOT AVBL
OSHKOSH        PTCLDY    55  39  54 VRB6      29.81F
$$

WIZ032>034-041-042-053>061-270400-
SOUTHWEST WISCONSIN

CITY           SKY/WX    TMP DP  RH WIND       PRES   REMARKS
LA CROSSE      CLEAR     61  37  41 W13       29.86F
SPARTA         CLEAR     43  42  97 CALM      29.86F
VIROQUA        CLEAR     53  35  49 W8        29.88F
BOSCOBEL       CLEAR     53  40  61 SW5       29.90F
PRAIRIE DU CHI CLEAR     58  34  40 W9        29.91F
PLATTEVILLE    CLEAR     53  39  57 SW8       29.93F
$$

WIZ056-057-062-063-064-067-068-270400-
SOUTH CENTRAL WISCONSIN

CITY           SKY/WX    TMP DP  RH WIND       PRES   REMARKS
REEDSBURG      NOT AVBL
BARABOO/DELLS  CLEAR     51  38  62 SW5       29.86F
LONE ROCK      NOT AVBL
MINERAL POINT  CLEAR     55  36  47 W9        29.91F
MADISON        CLEAR     58  38  47 VRB5      29.87F
MIDDLETON      NOT AVBL
WATERTOWN      CLEAR     50  42  74 CALM      29.87F
MONROE         CLEAR     55  36  47 SW12      29.92S
JANESVILLE     NOT AVBL
$$

WIZ051-052-058>065-066-070>072-270400-
SOUTHEAST WISCONSIN

CITY           SKY/WX    TMP DP  RH WIND       PRES   REMARKS
MILWAUKEE      CLEAR     59  38  45 W8        29.88S
WAUKESHA       CLEAR     52  36  54 SW6       29.89F
MILWAUKEE/TIMM CLEAR     54  36  50 SW3       29.88F
RACINE         CLEAR     56  37  49 SW7       29.89F
BURLINGTON     CLEAR     52  37  56 W5        29.90S
KENOSHA        CLEAR     54  38  54 SW10      29.89F
FOND DU LAC    PTCLDY    52  41  66 SW7       29.83F
SHEBOYGAN      PTCLDY    52  40  63 SW9       29.82F
WEST BEND      CLEAR     52  37  58 SW7       29.85F
JUNEAU         CLEAR     49  41  73 SW7       29.87F
$$

LSZ147-162-270400-
LAKE SUPERIOR

STATION/POSITION TIME  TEMP    WIND        PRES    WAVE
                       AIR SEA DIR/SP/G            HT/PER
                 (UTC) (F)     (DEG/KT/KT) (MB)    (FT/S)
W MID LAKE BUOY  0150   50 47  250/ 21/ 23 1000.9F   7/ 7
DEVILS ISLAND    0200   53     250/ 27/ 30 1003.7F
SAXON HARBOR     0240   52     230/ 11/ 17 1005.1F
$$

LMZ867-665-643>646-270400-
LAKE MICHIGAN

STATION/POSITION TIME  TEMP    WIND        PRES    WAVE
                       AIR SEA DIR/SP/G            HT/PER
                 (UTC) (F)     (DEG/KT/KT) (MB)    (FT/S)
CHAMBERS ISLAND  0200   58     220/ 10/ 22 1006.4S
N MID LAKE BUOY  0150   58 67  260/ 29/ 37 1004.7F   7/ 6
NORTHPORT PIER   0227   58     260/ 13/ 25 1006.4F
KEWAUNEE LAKESHO 0200   58     240/  7/ 10 1008.2F
SHEBOYGAN LAKESH 0200   58     240/ 10/ 12 1010.1F
PORT WASHINGTON  0200   56     250/  3/  4 1011.9
ATWATER BUOY     0200   58 54  260/  4/  6 1011.8R
MILWAUKEE LAKESH 0210   62     240/  8/ 10   N/A
S MID LAKE BUOY  0150   67 71  240/ 23/ 29 1011.0R   5/ 5
KENOSHA   LAKESH 0200   62     240/  9/ 13 1012.2S
$$

TC  - TEMPERATURE IN CELSIUS
VSB - VISIBILITY IN STATUTE MILES
WCI - WIND CHILL INDEX
HX  - HEAT INDEX





USA.gov is the U.S. government's official web portal to all federal, state and local government web resources and services.